Location: Arcones
(41.1182°N, 3.7238°W)
Time: 04:10:48
(UTC+00:00)

Cosmos 2297 Rocket - Pass Details

Date: 11 December 2025
Orbit: 837 x 844 km, 71.0° (Epoch: 13 January)

Event Time Altitude Azimuth Distance (km) Brightness Sun altitude
Rises 17:45:56 0° 332° (NNW) 3,409 5.4 -10.9°
Reaches altitude 10° 17:48:25 10° 329° (NNW) 2,471 4.8 -11.4°
Maximum altitude 17:53:59 61° 251° (WSW) 958 2.8 -12.4°
Drops below altitude 10° 17:59:31 10° 172° (S) 2,454 4.8 -13.3°
Sets 18:01:59 0° 169° (S) 3,384 5.4 -13.8°
